Goryachiy klyuch, Russia
Current Conditions -  °F | °C
As of 3:00 AM on Monday 24 Nov 2014 (Local Time) from URKK Reporting Station
Clear Clear  
Wind Chill: 15°   Ceiling: Unl
Heat Index: 23°   Visibility: 6mi
Dew Point: 19°   Wind: 7mph
Humidity: 86%   Direction: 20°NNE
Pressure: 30.33"   Gusts: NA
Location:  44.63°N, 39.13°E
Report Text: URKK 240000Z 02003MPS CAVOK M05/M07 Q1027 NOSIG RMK QFE767SC070
Loading
Personal Weather Stations






























Interactive Weather Map New forecast layout! Learn more

10-Day Weather Forecast

Advertisements
Track Severe Weather on mobile